User: anonymous   Login
Location: Caltech
(34.1382°N, 118.1253°W)
Time: 00:16:20
(UTC-07:00)
Language:

GPS 2-04 Rocket1 - Orbit

View from above orbital plane
View from above orbital plane
View from above satellite
View from above satellite

Ground track
Ground track

The orbit data is extracted from the following two-line orbital elements,

1 20303U 89085B   16144.86563618 +.00002251 +00000-0 +85385-4 0  9990
2 20303 035.6312 306.7775 0113410 335.5306 024.0065 15.21054844441729
Epoch (UTC): 23 May 2016 20:46:30
Eccentricity: 0.0113410
inclination: 35.6312°
perigee height: 424 km
apogee height: 580 km
right ascension of ascending node: 306.7775°
argument of perigee: 335.5306°
revolutions per day: 15.21054844
mean anomaly at epoch: 24.0065°
orbit number at epoch: 44172

The dashed part of the orbit path shows where the satellite is in the earth's shadow,  

DLR